Tracking 30923 objects as of 1-Jul-2025
HD Live streaming from Space Station
objects crossing your sky now

ATLAS 5 CENTAUR DEB

Track ATLAS 5 CENTAUR DEB now!


NORAD ID: 43949
Int'l Code: 2014-055C
Perigee: 7,150.1 km
Apogee: 34,091.7 km
Inclination: 20.9 °
Period: 735.5 minutes
Semi major axis: 26991 km
RCS: Unknown
Launch date: September 17, 2014
Source: United States (US)
Launch site: AIR FORCE EASTERN TEST RANGE (AFETR)

Note: This is SATELLITE DEBRIS
Your satellite tracking list
FENGYUN 1C DEB
Track 1 satellite(s)




NASA's NSSDC Master Catalog

Two Line Element Set (TLE):
1 43949U 14055C   25180.83861796 -.00000084  00000-0  00000-0 0  9991
2 43949  20.8529 124.1182 4990667 200.7143 128.4879  1.95773048 26825
Source of the keplerian elements: AFSPC